This is the latest recevied weather packets stored in our database for station/object LX0APE-4. If no packets are shown the sender has not sent any weather packets the latest 1 day(s).
| Time | Temp. | Humidity | Pressure | Rain* | Wind** | Luminosity | Snow |
|---|---|---|---|---|---|---|---|
| 1778055410 | 13.89° C | 86% | 5002.6 hPa | 0 mm | - | - | - |
| 1778054810 | 13.33° C | 87% | 5002.3 hPa | 0 mm | - | - | - |
| 1778054210 | 12.78° C | 90% | 5002.4 hPa | 0 mm | - | - | - |
| 1778053910 | 12.78° C | 90% | 5002.4 hPa | 0 mm | - | - | - |
| 1778052117 | 11.11° C | 93% | 5002.6 hPa | 0 mm | - | - | - |
| 1778052110 | 11.11° C | 93% | 5002.6 hPa | 0 mm | - | - | - |
| 1778051810 | 11.11° C | 93% | 5002.5 hPa | 0 mm | - | - | - |
| 1778051210 | 11.11° C | 93% | 5002.6 hPa | 0 mm | - | - | - |
| 1778050310 | 10.56° C | 93% | 5002.4 hPa | 0.51 mm | - | - | - |
| 1778049410 | 10.56° C | 93% | 5002.5 hPa | 0.51 mm | - | - | - |
| 1778049110 | 10.56° C | 92% | 5002.4 hPa | 0.51 mm | - | - | - |
| 1778048210 | 10.56° C | 92% | 5002.2 hPa | 0.51 mm | - | - | - |
| 1778047610 | 10.56° C | 92% | 5002.4 hPa | 0.51 mm | - | - | - |
| 1778047010 | 10.56° C | 92% | 5002.3 hPa | 0 mm | - | - | - |
| 1778046710 | 10.56° C | 92% | 5002.3 hPa | 0 mm | - | - | - |
| 1778044611 | 11.11° C | 92% | 5002.1 hPa | 0 mm | - | - | - |
| 1778043111 | 10.56° C | 92% | 5002.1 hPa | 0 mm | - | - | - |
| 1778042511 | 10.56° C | 93% | 5002.1 hPa | 0 mm | - | - | - |
| 1778042211 | 10.56° C | 93% | 5002.1 hPa | 0 mm | - | - | - |
| 1778041911 | 10.56° C | 93% | 5002.2 hPa | 0 mm | - | - | - |
| 1778041611 | 10.56° C | 93% | 5002.1 hPa | 0 mm | - | - | - |
| 1778041311 | 10.56° C | 93% | 5002.2 hPa | 0 mm | - | - | - |
| 1778041011 | 10.56° C | 93% | 5002.1 hPa | 0 mm | - | - | - |
| 1778040711 | 11.11° C | 93% | 5002.1 hPa | 0 mm | - | - | - |
| 1778040411 | 10.56° C | 93% | 5002.2 hPa | 0 mm | - | - | - |
* Rain latest hour (hover to see other rain measurements)
** Current wind speed in m/s (hover to see current wind gust speed)